Regional Weather Roundup
Issued by NWS

Home | Current Version | Previous Version | Graphics & Text | Print | Product List | Glossary On
Versions: 1 2 3 4 5 6 7 8 9 10 11 12 13 14 15 16 17 18 19 20 21 22 23 24 25 26 27 28 29 30 31 32 33 34 35 36 37 38 39 40 41 42 43 44 45 46 47 48 49 50
000
ASUS43 KMKX 050311
RWRWI

WISCONSIN REGIONAL WEATHER ROUNDUP
NATIONAL WEATHER SERVICE MILWAUKEE/SULLIVAN WI
1000 PM CDT MON MAY 04 2015

NOTE: "FAIR" INDICATES FEW OR NO CLOUDS BELOW 12,000 FEET WITH NO
SIGNIFICANT WEATHER AND/OR OBSTRUCTIONS TO VISIBILITY.

WIZ001-002-006>008-014>016-023>028-050400-
NORTHWEST WISCONSIN

CITY           SKY/WX    TMP DP  RH WIND       PRES   REMARKS
SUPERIOR ARPT  CLEAR     49  24  38 CALM      30.21R
ASHLAND        CLEAR     46  40  79 N3        30.23R
HAYWARD        CLEAR     46  30  53 N6        30.22R
SIREN          PTCLDY    47  32  56 CALM      30.21R
CUMBERLAND     PTCLDY    54  25  32 NE5       30.20R
RICE LAKE      PTCLDY    54  30  39 N6        30.21R
CHETEK         PTCLDY    53  37  54 CALM      30.20R
LADYSMITH      PTCLDY    56  26  30 NE8       30.22R
EAU CLAIRE     PTCLDY    52  35  52 NE3       30.18R
MENOMONIE      PTCLDY    58  40  51 CALM      30.18S
NEW RICHMOND   PTCLDY    52  36  53 CALM      30.20R
OSCEOLA        CLEAR     51  40  67 CALM      30.22R
$$

WIZ003>005-009-010-017-018-050400-
NORTH CENTRAL WISCONSIN

CITY           SKY/WX    TMP DP  RH WIND       PRES   REMARKS
MANITOWISH WTR PTCLDY    42  30  62 CALM      30.24R
ARBOR VITAE    PTCLDY    54  22  29 NE5       30.24R
WOODRUFF       PTCLDY    54  22  29 NE5       30.24R
RHINELANDER    PTCLDY    54  23  30 N5        30.23R
EAGLE RIVER    CLEAR     50  26  39 N3        30.24R
LAND O LAKES   CLEAR     42  31  62 CALM      30.25S
PHILLIPS       PTCLDY    49  25  39 NE7       30.22R
TOMAHAWK       MOCLDY    52  25  34 CALM      30.23R
MEDFORD        PTCLDY    52  36  55 NE5       30.20R
MERRILL        MOCLDY    52  33  48 N3        30.21R
$$

WIZ029-030-035-036-043>047-050400-
CENTRAL WISCONSIN

CITY           SKY/WX    TMP DP  RH WIND       PRES   REMARKS
WAUSAU         MOCLDY    56  40  55 E13       30.20R
MOSINEE        CLEAR     55  39  54 E7        30.22R
MARSHFIELD     PTCLDY    57  41  55 NE3       30.19R
STEVENS POINT  MOCLDY    55  40  58 E8        30.21R
WAUPACA        PTCLDY    57  40  53 E6        30.23R
WAUTOMA        PTCLDY    58  41  53 E9        30.21R
WISC RAPIDS    MOCLDY    54  39  57 E9        30.19R
CAMP DOUGLAS   MOCLDY    52  46  82 W1        30.16R
$$

WIZ011>013-019>022-031-037>040-048>050-050400-
NORTHEAST WISCONSIN

CITY           SKY/WX    TMP DP  RH WIND       PRES   REMARKS
ANTIGO         MOCLDY    52  42  68 SE9       30.24R
SHAWANO        MOCLDY    54  40  59 E7        30.24R
OCONTO         MOCLDY    51  37  60 E3        30.25R
STURGEON BAY   MOCLDY    50  32  50 E7        30.27S
GREEN BAY      MOCLDY    54  38  54 E6        30.23R
MANITOWOC      MOCLDY    52  37  56 NE5       30.24R
APPLETON       MOCLDY    55  36  47 E10       30.22R
CLINTONVILLE   MOCLDY    54  39  58 E6        30.23R
OSHKOSH        MOCLDY    56  40  55 E9        30.21R
$$

WIZ032>034-041-042-053>061-050400-
SOUTHWEST WISCONSIN

CITY           SKY/WX    TMP DP  RH WIND       PRES   REMARKS
LA CROSSE      PTCLDY    60  44  55 N5        30.15R
SPARTA         PTCLDY    51  42  70 CALM      30.18S
VIROQUA        PTCLDY    59  41  51 NE7       30.17R
BOSCOBEL       CLOUDY    65  51  60 CALM      30.14R
PRAIRIE DU CHI CLOUDY    64  52  65 CALM      30.13S
PLATTEVILLE    CLOUDY    66  56  70 E10       30.14R
$$

WIZ056-057-062-063-064-067-068-050400-
SOUTH CENTRAL WISCONSIN

CITY           SKY/WX    TMP DP  RH WIND       PRES   REMARKS
REEDSBURG      MOCLDY    62  46  55 CALM      30.17R
BARABOO/DELLS  MOCLDY    61  40  46 SE10      30.17R
LONE ROCK      MOCLDY    65  54  67 E10       30.15R
MINERAL POINT  MOCLDY    64  55  72 E12       30.16R
MADISON        MOCLDY    60  37  42 E9        30.18R
MIDDLETON      MOCLDY    62  39  42 E9        30.18R
WATERTOWN      CLOUDY    56  38  50 E5        30.20R
MONROE         PTCLDY    59  45  58 E8        30.17R
JANESVILLE     PTCLDY    59  37  44 E8        30.17R
$$

WIZ051-052-058>065-066-070>072-050400-
SOUTHEAST WISCONSIN

CITY           SKY/WX    TMP DP  RH WIND       PRES   REMARKS
MILWAUKEE      MOCLDY    52  34  50 N5        30.20S
WAUKESHA       PTCLDY    50  34  53 NE5       30.22R
MILWAUKEE/TIMM PTCLDY    54  32  43 CALM      30.22R
RACINE         MOCLDY    50  36  58 N3        30.22R
BURLINGTON     MOCLDY    53  35  51 E6        30.20S
KENOSHA        CLEAR     49  38  65 CALM      30.20R
FOND DU LAC    MOCLDY    54  38  54 E5        30.20R
SHEBOYGAN      MOCLDY    48  36  63 NE6       30.22R
WEST BEND      PTCLDY    52  34  50 NE5       30.21S
JUNEAU         MOCLDY    55  39  55 E6        30.21R
$$

LSZ147-162-050400-
LAKE SUPERIOR

STATION/POSITION TIME  TEMP    WIND        PRES    WAVE
                       AIR SEA DIR/SP/G            HT/PER
                 (UTC) (F)     (DEG/KT/KT) (MB)    (FT/S)
W MID LAKE BUOY  0250   43 35  340/  6/  6 1024.7R   0
DEVILS ISLAND    0300   58     150/  6/  7 1023.8R
PORT WING        0200   53     120/  1/  4 1022.7R
SAXON HARBOR     0200   49        CALM     1022.7R
$$

LMZ867-665-643>646-050400-
LAKE MICHIGAN

STATION/POSITION TIME  TEMP    WIND        PRES    WAVE
                       AIR SEA DIR/SP/G            HT/PER
                 (UTC) (F)     (DEG/KT/KT) (MB)    (FT/S)
CHAMBERS ISLAND  0200   52     120/  4/  6 1024.0R
NORTHPORT PIER   0200   46     180/  2/  6 1023.7R
SISTER BAY       0132   47     130/  8/ 11   N/A
KEWAUNEE LAKESHO 0200   49      70/  7/ 11 1022.8R
SHEBOYGAN LAKESH 0300   47      20/ 10/ 12 1023.5R
PORT WASHINGTON  0240   54     360/  7/ 12 1023.4R
ATWATER BUOY     0200   48     350/  6/  8 1023.7R
MILWAUKEE LAKESH 0200   53      10/  8/ 11   N/A
KENOSHA   LAKESH 0300   50     350/  4/  4 1022.7R
$$

TC  - TEMPERATURE IN CELSIUS
VSB - VISIBILITY IN STATUTE MILES
WCI - WIND CHILL INDEX
HX  - HEAT INDEX



USA.gov is the U.S. government's official web portal to all federal, state and local government web resources and services.